Location: Josephatowa
(41.5139°N, 81.6699°W)
Time: 00:39:03
(UTC+00:00)

Daily predictions for brighter satellites

Satellite Brightness Start Highest point End
(mag) Time Altitude Azimuth Time Altitude Azimuth Time Altitude Azimuth
Meteor 1-25 Rocket 4.2 00:00:24 10° N 00:06:08 88° W 00:11:55 10° S
Hubble Space Telescope 3.2 00:08:04 10° SSW 00:09:59 13° S 00:10:04 13° S
Cosmos 1400 Rocket 3.0 00:07:31 10° SSW 00:11:37 72° W 00:12:16 59° NNW
USA 215 4.2 00:13:56 28° NNE 00:14:40 29° NNE 00:20:06 10° NW
Cosmos 2263 Rocket 2.3 00:12:29 10° NNW 00:18:03 74° WSW 00:22:51 14° SSE
NOSS 3-2 (C) 4.5 00:22:07 10° NNW 00:28:40 41° NE 00:28:40 41° NE
ISS -1.4 00:26:18 10° WSW 00:27:44 23° WSW 00:27:44 23° WSW
CZ-4 R/B 4.5 00:58:39 10° SW 01:00:52 14° W 01:03:04 10° WNW
CENTAUR R/B 3.7 00:54:28 10° NNW 01:00:15 42° N 01:00:15 42° N
COSMOS 2455 3.7 01:07:30 10° SW 01:12:34 46° WNW 01:12:34 46° WNW
ATLAS 2AS CENTAUR R/B 3.4 01:14:01 10° SSW 01:19:52 55° SSW 01:19:52 55° SSW
ATLAS 3B R/B 4.3 01:19:35 10° NNW 01:21:59 22° NNW 01:21:59 22° NNW
USA 238 DEB 4.4 01:23:11 10° NW 01:28:40 52° WNW 01:28:40 52° WNW
USA 238 4.4 01:23:17 10° NW 01:28:43 52° WNW 01:28:43 52° WNW
NOSS 3-2 (A) 4.4 01:25:27 10° NW 01:31:32 59° WNW 01:31:32 59° WNW
Cosmos 2360 Rocket 4.3 01:27:54 10° SW 01:29:43 20° SW 01:29:43 20° SW
SL-16 R/B 4.4 01:37:56 10° W 01:41:45 20° NW 01:41:45 20° NW
Cosmos 2322 Rocket 4.5 01:43:23 10° W 01:46:25 19° WNW 01:46:25 19° WNW
SL-16 R/B 4.0 08:53:22 26° E 08:53:22 26° E 08:56:22 10° ESE
ATLAS 2AS CENTAUR R/B 3.6 08:55:46 47° NE 08:55:46 47° NE 09:02:33 10° ESE
Cosmos 2322 Rocket 3.9 08:57:45 30° E 08:57:45 30° E 09:01:34 10° ESE
CZ-3B R/B 3.9 09:20:44 25° S 09:20:44 25° S 09:25:53 10° SE
Cosmos 1459 Rocket 4.2 09:37:22 10° S 09:43:32 71° E 09:49:50 10° NNE
Meteor 2-20 Rocket 4.4 09:43:27 63° N 09:44:34 85° E 09:50:43 10° S
BREEZE-M DEB (TANK) 4.3 09:40:52 41° NW 09:45:05 69° NNE 09:49:44 10° ESE
SL-4 R/B 2.8 09:53:54 61° ESE 09:53:54 61° ESE 09:57:54 10° SE
ATLAS CENTAUR R/B 3.1 09:57:01 29° NNE 09:57:01 29° NNE 09:59:24 10° NNE
Cosmos 2016 Rocket 4.3 09:53:39 10° S 09:59:50 65° E 10:06:07 10° NNE
COSMO-SKYMED 1 4.3 09:59:03 10° SE 10:02:53 31° ENE 10:06:44 10° N
NOSS 3-4 (A) 3.8 10:03:53 37° NNW 10:07:10 88° ENE 10:14:58 10° SE
NOSS 3-4 (C) 3.8 10:03:58 36° NNW 10:07:16 87° ENE 10:15:04 10° SE
Cosmos 1048 Rocket 4.5 10:08:20 22° N 10:11:47 61° ENE 10:17:02 10° SSE
COSMOS 2455 3.1 10:14:23 45° SW 10:14:23 45° SW 10:19:36 10° S
CZ-4B R/B 3.9 10:15:29 10° N 10:19:58 73° WNW 10:20:32 63° SW
Cosmos 2298 Rocket 4.1 10:21:17 54° WNW 10:21:17 54° WNW 10:26:29 10° N
Lacrosse 5 3.9 10:22:34 14° N 10:22:45 14° N 10:25:27 10° NNE
Cosmos 1151 Rocket 2.8 10:22:37 52° NNW 10:23:39 81° W 10:27:57 10° S
Cosmos 2237 4.3 10:21:13 22° NNW 10:25:04 78° ENE 10:30:46 10° SSE
Cosmos 2100 Rocket 4.0 10:20:38 10° SSW 10:26:35 50° WNW 10:32:33 10° N
Cosmos 2360 Rocket 2.2 10:23:13 23° NNW 10:26:54 85° ENE 10:32:34 10° SSE
SL-08 R/B 4.3 10:22:52 10° S 10:28:58 89° W 10:35:05 10° N
Cosmos 468 4.4 10:29:20 25° NNW 10:32:28 79° WSW 10:37:42 10° SSE
Tsikada Rocket 4.1 10:28:20 10° N 10:34:44 78° E 10:41:01 10° S
SL-16 R/B 2.8 10:35:18 35° WSW 10:35:18 35° WSW 10:40:20 10° SSW
Cosmos 1833 4.0 10:29:48 10° SSW 10:35:24 77° WNW 10:41:04 10° NNE
PSLV R/B 3.7 10:32:01 10° NNE 10:35:58 89° WNW 10:39:59 10° SSW
COSMOS 2428 4.1 10:31:04 10° N 10:36:18 36° ENE 10:41:31 10° ESE
Cosmos 2322 Rocket 2.7 10:39:39 35° W 10:40:32 37° WSW 10:45:41 10° S
Cosmos 1328 Rocket 3.7 10:41:18 43° WNW 10:41:43 45° W 10:45:49 10° SSW
Cosmos 494 Rocket 4.4 10:39:33 10° NNW 10:44:46 64° ENE 10:49:55 10° SSE
Cosmos 1825 2.7 10:45:55 38° NW 10:45:55 38° NW 10:48:42 10° N
CZ-2C R/B 3.3 10:40:59 10° N 10:43:55 27° NW 10:43:55 27° NW
Cosmos 1606 2.7 10:41:43 12° N 10:45:15 83° E 10:49:05 10° S
ATLAS 2AS CENTAUR R/B 3.2 10:43:17 27° WNW 10:46:39 41° WSW 10:53:01 10° S
Cosmos 1515 Rocket 3.4 10:45:42 14° NNW 10:49:25 63° W 10:53:42 10° S
Cosmos 1802 Rocket 4.3 10:43:35 10° SSW 10:49:41 45° WNW 10:55:47 10° N
SKYMED 2 3.4 10:46:33 10° S 10:50:54 77° W 10:55:15 10° NNW
Okean O Rocket 2.3 10:47:26 10° NNE 10:51:44 57° E 10:56:01 10° S
Cosmos 2173 Rocket 4.5 10:46:33 10° SW 10:52:07 34° WNW 10:57:41 10° N
Cosmos 1743 Rocket 3.4 10:48:16 10° SSW 10:52:33 68° W 10:56:53 10° N
Cosmos 2228 Rocket 3.1 10:48:18 10° N 10:52:56 88° E 10:57:30 10° S
FENGYUN 3A 3.9 10:48:16 10° NNE 10:53:41 73° ESE 10:59:04 10° S
STARLINK-46 2.7 10:56:04 44° NW 10:56:52 77° NE 10:59:49 10° SE
BREEZE-M DEB (TANK) 3.7 10:56:18 27° WSW 10:57:17 32° SSW 11:02:56 10° SSE
Cosmos 2346 Rocket 4.4 10:54:16 10° NNW 11:00:12 56° W 11:06:04 10° SSW
Cosmos 1269 Rocket 4.2 10:55:56 10° NNW 11:01:16 76° ENE 11:06:32 10° SSE
Cosmos 2233 Rocket 3.9 10:58:32 10° S 11:04:50 79° W 11:11:11 10° N
RESURS DK-1 4.3 11:02:02 10° N 11:05:34 27° NE 11:09:06 10° ESE
Cosmos 1125 Rocket 3.8 11:03:16 10° SW 11:08:16 42° WNW 11:13:16 10° N
Lacrosse 5 rocket 1.3 11:07:53 19° NW 11:10:20 61° NE 11:13:53 10° SE
Cosmos 2333 4.2 11:04:34 10° NNW 11:10:24 86° WSW 11:16:11 10° SSE
Cosmos 1933 3.9 11:09:36 11° NNW 11:13:02 36° W 11:16:42 10° SSW
Timation 2 Rocket 3.8 11:07:42 10° SSW 11:13:46 83° WNW 11:19:46 10° NNE
Cosmos 1633 4.1 11:10:37 10° SSE 11:14:00 39° E 11:17:25 10° NNE
Cosmos 1500 Rocket 3.9 11:10:17 10° SSW 11:14:32 43° WNW 11:18:47 10° N
SJ-12 4.2 11:10:51 10° N 11:14:49 45° WNW 11:18:46 10° SW
Cosmos 2219 Rocket 2.5 11:09:11 10° NNW 11:14:51 70° ENE 11:20:30 10° SSE
Cosmos 1315 Rocket 3.6 11:12:09 10° N 11:16:09 55° ENE 11:20:10 10° SSE
Cosmos 1484 Rocket 3.6 11:12:42 10° N 11:16:15 31° WNW 11:19:46 10° SW
Sich 1 3.7 11:12:40 10° S 11:16:51 58° E 11:21:03 10° NNE
Cosmos 2322 3.7 11:11:18 10° NNW 11:16:56 65° WSW 11:22:31 10° S
BREEZE-M DEB 4.1 11:09:31 16° WNW 11:17:22 82° NNE 11:21:24 10° ESE
Meteor 2-3 Rocket 3.8 11:11:47 10° SSW 11:17:28 59° WNW 11:23:12 10° N
CZ-4B R/B 3.2 11:14:07 10° NNE 11:19:34 83° WNW 11:25:07 10° SSW
CZ-3B R/B 3.7 11:16:25 10° WSW 11:20:44 17° SSW 11:23:49 10° SSE
H-2A R/B 4.4 11:21:20 10° NNE 11:24:48 37° E 11:28:15 10° SSE
STARLINK-60 4.3 11:25:09 12° NW 11:27:58 33° NNE 11:31:03 10° E
Cosmos 2297 Rocket 4.3 11:23:27 10° SSE 11:28:21 31° ESE 11:33:16 10° NE
Cosmos 2333 Rocket 2.3 11:23:05 10° NNW 11:28:54 87° WSW 11:34:40 10° SSE
STARLINK 1040 3.6 11:26:54 10° SSW 11:29:28 45° SE 11:32:02 10° ENE
Cosmos 2227 Rocket 4.4 11:24:39 10° SSE 11:29:30 30° ESE 11:34:22 10° NE
Abrixas rocket 3.7 11:28:46 13° NW 11:30:32 21° N 11:32:55 10° NE
ALOS 2.6 11:26:58 10° N 11:31:24 43° WNW 11:35:48 10° SW
Cosmos 1782 2.7 11:27:55 10° NNW 11:31:54 68° W 11:35:48 10° S
SL-4 R/B 4.0 11:29:32 12° W 11:32:20 19° SW 11:35:40 10° S
Cosmos 1666 Rocket 4.1 11:28:58 10° S 11:33:22 66° E 11:37:47 10° NNE
NOAA 6 4.0 11:28:53 10° N 11:33:56 60° WNW 11:38:56 10° SSW
SMAP 3.9 11:29:48 10° NNE 11:34:23 55° E 11:38:56 10° S
ATLAS CENTAUR R/B 3.7 11:33:15 11° NW 11:34:35 12° NW 11:36:13 10° NNW
USA 116 4.3 11:34:46 10° SSW 11:37:46 30° W 11:41:05 10° NNW
Cosmos 1464 Rocket 4.3 11:32:05 10° S 11:38:22 76° E 11:44:36 10° N
COSMO-SKYMED 1 3.8 11:35:37 10° SSW 11:39:03 23° W 11:42:31 10° NW
Cosmos 1400 Rocket 4.0 11:43:25 10° NW 11:46:35 22° W 11:49:41 10° SW
Cosmos 1072 Rocket 4.5 11:44:43 10° S 11:50:52 80° W 11:57:01 10° N
SL-16 R/B 4.2 11:48:28 10° N 11:52:59 23° NE 11:57:27 10° ESE
Cosmos 1862 3.2 11:51:33 10° SSW 11:55:30 76° W 11:59:28 10° N
